Location: Cepate
(14.2500°N, 87.2000°W)
Time: 05:55:46
(UTC+00:00)

Daily predictions for brighter satellites

Satellite Brightness Start Highest point End
(mag) Time Altitude Azimuth Time Altitude Azimuth Time Altitude Azimuth
Cosmos 1302 Rocket 4.0 00:23:40 10° N 00:28:53 79° ENE 00:34:07 10° SSE
USA 267 4.0 00:23:53 10° ENE 00:29:32 31° SE 00:35:09 10° S
Cosmos 1867 3.7 00:25:53 10° SSW 00:31:17 83° WNW 00:36:43 10° NNE
Sich 1 4.4 00:31:57 10° SE 00:35:02 19° E 00:38:08 10° NE
Cosmos 1743 Rocket 3.7 00:38:05 10° S 00:42:29 82° W 00:46:56 10° N
GPS 2-17 Rocket1 3.4 00:40:20 10° WNW 00:44:55 59° NNE 00:49:05 12° E
Gbstr 26 Del rocket 2.8 00:46:49 10° NW 00:50:30 72° SW 00:54:20 10° SSE
Cosmos 407 Rocket 3.7 00:46:15 10° SSW 00:51:35 78° WNW 00:56:53 10° N
Cosmos 1782 3.3 00:48:04 10° NNE 00:51:51 39° E 00:55:37 10° SSE
Cosmos 2228 Rocket 4.1 00:50:40 10° NNE 00:54:15 24° E 00:57:07 13° SE
Cosmos 1339 Rocket 4.5 00:48:06 10° N 00:54:15 62° E 01:00:19 10° SSE
CZ-4 R/B 1.8 00:50:52 10° S 00:54:41 61° W 00:58:34 10° NNW
Cosmos 1190 Rocket 4.0 00:49:48 10° SSW 00:55:02 87° ESE 01:00:19 10° NNE
Cosmos 1992 Rocket 4.1 00:54:43 10° N 00:59:47 53° ENE 01:04:50 10° SSE
Cosmos 1140 Rocket 3.5 00:54:35 10° SSW 00:59:49 87° W 01:05:04 10° NNE
CSL-04 Rocket 3.6 00:56:36 10° SSE 01:01:52 68° ENE 01:07:05 10° N
USA 238 DEB 3.9 00:56:07 10° SSW 01:02:37 72° WNW 01:09:12 10° NNE
USA 238 3.9 00:56:13 10° SSW 01:02:42 73° WNW 01:09:19 10° NNE
Ariane H10+ 3.9 01:01:26 10° SW 01:03:21 14° S 01:04:39 11° SSE
MOS 1 Rocket 3.6 01:00:04 10° N 01:05:18 83° W 01:10:14 10° SSW
ARGOS 3.7 01:04:05 13° SE 01:08:22 38° ENE 01:13:16 10° N
CENTAUR R/B 2.0 01:04:05 10° SSW 01:09:14 66° ESE 01:14:59 10° NNE
GPS 2-18 Rocket1 4.0 01:07:36 10° SW 01:11:12 33° SSE 01:12:24 27° SE
Cosmos 1666 Rocket 4.0 01:09:16 11° SSE 01:13:05 35° E 01:17:01 10° NNE
Cosmos 2082 Rocket 3.3 01:15:29 10° SW 01:20:55 46° WNW 01:26:22 10° N
Cosmos 1805 Rocket 4.2 01:19:22 10° SSW 01:23:41 58° W 01:28:03 10° N
HJ-1C 4.1 01:22:46 10° S 01:26:00 52° W 01:29:16 10° NNW
CZ-2C R/B 2.5 01:21:59 10° NNE 01:27:14 85° ESE 01:32:36 10° S
SL-08 RB Rocket 4.0 01:30:36 40° ESE 01:31:28 46° ENE 01:35:52 10° N
CZ-3B R/B 3.4 01:30:03 10° WNW 01:33:25 85° NNE 01:36:40 34° ESE
GPS 2-15 Rocket1 3.1 01:30:12 10° W 01:34:51 75° NNW 01:36:26 40° ENE
Sakura Rocket 4.3 01:28:08 10° WNW 01:35:49 59° SSW 01:38:23 33° SSE
Cosmos 389 Rocket 3.2 01:34:33 10° N 01:36:58 39° NNE 01:36:58 39° NNE
Cosmos 1727 Rocket 3.9 01:32:16 10° N 01:38:38 88° E 01:44:52 10° S
Cosmos 1633 Rocket 2.9 01:39:05 41° SSE 01:40:32 70° E 01:44:56 10° N
Cosmos 1821 Rocket 4.3 01:35:56 10° SSW 01:41:59 67° W 01:48:06 10° N
H-2A R/B 2.6 01:38:47 10° S 01:43:56 58° W 01:48:56 10° NNW
SJ-6B 3.7 01:46:57 38° NNE 01:46:57 38° NNE 01:49:44 10° N
Ariane H10 4.1 01:46:12 10° SW 01:50:12 33° SSE 01:50:43 33° SSE
CZ-2C R/B 4.4 01:46:48 10° SSW 01:51:16 34° W 01:55:35 10° NW
ATLAS 5 CENTAUR R/B 2.6 01:46:22 10° NNW 01:53:01 84° ENE 01:55:39 43° SSE
ARIANE 5 DEB (SYLDA) 4.4 01:38:52 10° W 01:56:40 39° SSW 01:58:10 34° SSE
Cosmos 1656 3.8 01:57:25 10° NNW 02:02:57 71° WSW 02:04:19 51° S
Delta 202 3.8 01:55:28 10° WNW 02:02:58 75° N 02:03:51 63° ENE
Cosmos 1812 3.9 01:59:32 10° N 02:01:59 37° NNW 02:01:59 37° NNW
Meteor 1-20 Rocket 4.1 02:03:39 72° E 02:03:39 72° E 02:09:19 10° N
Cosmos 1980 Rocket 4.0 02:01:35 10° NNE 02:03:25 17° NNE 02:03:25 17° NNE
Cosmos 1535 Rocket 4.5 02:01:38 11° S 02:07:31 77° W 02:13:37 10° N
USA 267 4.3 02:06:17 10° NNE 02:12:21 42° NW 02:18:25 10° WSW
Cosmos 1605 Rocket 4.1 02:17:12 62° NNE 02:17:12 62° NNE 02:22:14 10° N
Cosmos 1697 Rocket 3.1 02:13:08 10° NNW 02:17:30 55° N 02:17:30 55° N
ARIANE 5 R/B 4.5 02:15:35 10° WSW 02:21:52 21° SSW 02:21:52 21° SSW
Ariane Rocket 4.1 02:26:12 38° WSW 02:26:41 38° W 02:31:22 10° NNW
ATLAS 3B R/B 3.3 02:23:37 10° SSW 02:33:40 32° NNE 02:36:56 10° NNE
CZ-3A R/B 3.7 02:47:40 10° WNW 03:11:28 73° NNW 03:11:28 73° NNW
ATLAS 2A CENTAUR R/B 4.1 03:11:19 10° WSW 03:40:13 61° NW 03:40:13 61° NW
Centaur D-1AR AC-40 4.4 08:31:19 46° SE 08:31:19 46° SE 08:56:04 10° ESE
Intelsat 5-1 Rocket 3.9 08:49:18 77° E 08:49:18 77° E 09:06:34 10° ENE
Cosmos 2278 Rocket 3.7 08:59:52 31° E 08:59:52 31° E 09:04:31 10° NE
ARIANE 5 R/B 3.9 09:02:46 40° SSE 09:02:46 40° SSE 09:19:39 10° ESE
H-2A R/B 4.5 09:07:41 19° ENE 09:07:41 19° ENE 09:10:18 10° NNE
ATLAS 3B CENTAUR R/B 3.6 09:09:37 17° WNW 09:20:50 61° NNE 09:27:01 10° E
SeaSat 1 3.3 09:18:53 10° NNE 09:22:18 46° NNE 09:22:18 46° NNE
SWIFT 3.7 09:34:07 36° ENE 09:34:07 36° ENE 09:36:42 10° ENE
Cosmos 494 Rocket 4.2 09:29:01 10° N 09:33:35 66° NNE 09:33:35 66° NNE
Ariane H10+ 4.4 09:30:00 40° WSW 09:38:24 61° S 09:46:34 10° ESE
Cosmos 1745 Rocket 3.8 09:32:50 10° N 09:38:43 70° WNW 09:38:43 70° WNW
CZ-2C R/B 2.5 09:34:28 10° NNE 09:38:30 66° NNE 09:38:30 66° NNE
NOSS 3-4 (A) 3.3 09:39:33 63° S 09:40:29 78° ESE 09:46:23 10° NNE
NOSS 3-4 (C) 3.3 09:39:38 62° S 09:40:37 77° ESE 09:46:31 10° NNE
USA 281 3.1 09:35:50 10° NNE 09:42:24 89° WNW 09:44:29 48° SSW
Hubble Space Telescope 3.5 09:44:06 10° NNW 09:45:05 11° N 09:46:08 10° NNE
ALOS 3.6 09:51:50 10° NNE 09:56:07 37° E 10:00:25 10° SSE
Cosmos 1455 2.1 10:00:44 82° N 10:00:44 82° N 10:04:25 10° N
FENGYUN 3A 4.4 09:58:28 10° NNE 10:03:41 51° ESE 10:08:52 10° S
ATLAS 2AS CENTAUR R/B 2.9 09:59:52 32° SSW 10:03:52 77° WNW 10:11:52 10° NNE
ERS-2 2.0 10:06:23 69° NW 10:06:23 69° NW 10:09:39 10° NNW
ASTRO E2 3.4 10:06:12 40° NNW 10:06:17 40° NNW 10:10:01 10° NE
CZ-4B R/B 4.3 10:06:52 10° NNE 10:10:31 55° E 10:13:25 16° S
Cosmos 1400 Rocket 2.7 10:14:18 55° WSW 10:14:34 56° W 10:18:23 10° N
GPS 2-04 Rocket1 3.3 10:14:56 34° NW 10:15:01 34° NNW 10:18:19 10° NE
Cosmos 1709 Rocket 3.9 10:12:42 10° NNW 10:18:40 59° W 10:24:38 10° S
ASTRO F (AKARI) 4.1 10:17:40 10° N 10:20:47 77° WNW 10:21:37 46° SSW
ADEOS 3.8 10:17:18 10° N 10:22:18 49° WNW 10:25:13 24° SW
GPS 2-12 Rocket1 3.9 10:21:11 24° WNW 10:23:33 44° N 10:28:08 10° ENE
METEOR-M 4.3 10:20:30 10° NNE 10:25:51 77° ESE 10:31:11 10° S
deb Chang Zheng 4 4.4 10:22:54 10° NNW 10:26:40 29° WNW 10:27:10 29° W
Cosmos 1812 Rocket 4.3 10:29:03 29° W 10:29:30 30° W 10:33:17 10° NNW
Cosmos 1624 Rocket 4.4 10:29:54 10° S 10:35:06 64° ESE 10:40:15 10° NNE
CZ-4B R/B 3.2 10:30:49 10° NNE 10:35:09 75° E 10:39:16 10° S
Delta 142 4.3 10:34:22 26° SW 10:35:21 29° SSW 10:39:03 10° SSE
Nadezhda 1 Rocket 4.1 10:29:15 10° S 10:35:38 89° E 10:42:02 10° N
ADEOS Rocket 3.9 10:31:40 10° SSE 10:39:02 71° ENE 10:46:46 10° N
ARIANE DEB (SYLDA) 4.4 10:37:42 13° SSW 10:40:54 21° SSE 10:49:09 10° ESE
Centaur D-1AR AC-48 3.3 10:38:39 13° SSW 10:41:17 25° SSE 10:45:16 10° E
CZ-4B R/B 1.2 10:38:41 10° S 10:41:58 68° W 10:45:10 10° NNW
Cosmos 1076 Rocket 3.4 10:38:09 10° N 10:42:30 80° W 10:46:52 10° S
Cosmos 1689 Rocket 4.2 10:40:26 10° SE 10:43:01 30° ENE 10:45:37 10° NNE
H-2A R/B 3.8 10:44:47 13° WNW 10:44:47 13° WNW 10:45:37 10° WNW
Cosmos 2278 Rocket 3.5 10:41:46 17° W 10:43:29 20° WNW 10:47:28 10° NNW
Cosmos 1315 Rocket 2.8 10:41:12 10° S 10:45:18 83° W 10:49:26 10° N
Cosmos 371 Rocket 4.4 10:47:14 10° S 10:51:53 47° ESE 10:56:31 10° NNE
USA 102 4.4 10:49:00 10° SSE 10:54:31 89° ENE 10:58:39 10° NNW
Cosmos 1408 2.9 10:54:56 10° NNW 10:58:26 44° W 11:01:56 10° SSW
GPS 2-14 Rocket1 2.7 10:55:44 14° W 10:58:55 64° NNW 11:02:38 10° ENE
Cosmos 2251 Rocket 4.0 10:53:45 10° N 10:59:05 67° ENE 11:04:24 10° SSE
USA 81 4.0 10:54:55 10° N 11:00:12 85° W 11:05:28 10° S
Abrixas rocket 4.3 11:00:27 10° S 11:02:37 19° SE 11:04:48 10° E
Cosmos 2369 Rocket 4.3 10:58:54 10° SSE 11:03:40 29° ESE 11:08:23 10° NE
Cosmos 2058 3.8 11:00:10 10° NNW 11:03:45 28° W 11:07:20 10° SSW
BREEZE-M DEB (TANK) 4.1 11:00:23 10° SW 11:04:44 74° SE 11:19:57 10° NE
Cosmos 1833 Rocket 4.4 11:00:50 10° N 11:06:03 39° ENE 11:11:15 10° SE
Cosmos 1892 4.2 11:05:49 10° NW 11:08:21 17° W 11:10:52 10° SW
Cosmos 1943 Rocket 2.9 11:03:57 10° S 11:09:29 59° ESE 11:15:02 10° NNE
Cosmos-2242 4.3 11:07:29 10° SW 11:10:53 22° W 11:14:18 10° NNW
H-2A R/B 3.8 11:08:36 10° NNE 11:12:21 51° E 11:16:03 10° S
Meteor PRIRODA 4.4 11:09:19 10° NNW 11:12:43 34° WNW 11:16:06 10° SW
RESURS DK-1 2.4 11:09:07 10° SSW 11:13:11 65° WNW 11:17:15 10° N
Cosmos 1340 2.6 11:09:31 10° NNW 11:13:14 66° W 11:16:56 10° S
SWIFT 3.4 11:10:44 10° WNW 11:14:37 37° N 11:18:30 10° ENE
Cosmos 1867 4.0 11:10:51 10° NNW 11:16:16 70° ENE 11:21:38 10° SSE
Meteor 1-27 4.3 11:11:32 10° S 11:17:13 75° W 11:22:59 10° N
